• In Uzbekistan
  • List of Countries
  • For 7 days
  • Water Temperature
  • Weather Map
  • Weather Widgets
  • user-avatar
    Login

    Hourly Weather Amelin

    Today, 18 August, Sunday

    Time Temperature Precipitation Wind Pressure Humidity
    00:00 +18°C° 0 mm 2 mps 737 mmHg 61%
    01:00 +18°C° 0 mm 2 mps 736 mmHg 61%
    02:00 +18°C° 0 mm 2 mps 736 mmHg 62%
    03:00 +18°C° 0 mm 2 mps 736 mmHg 63%
    04:00 +18°C° 0 mm 3 mps 736 mmHg 64%
    05:00 +19°C° 0 mm 3 mps 736 mmHg 63%
    06:00 +20°C° 0 mm 3 mps 736 mmHg 62%
    07:00 +20°C° 0 mm 3 mps 736 mmHg 61%
    08:00 +22°C° 0 mm 3 mps 736 mmHg 57%
    09:00 +24°C° 0 mm 3 mps 736 mmHg 52%
    10:00 +26°C° 0 mm 3 mps 736 mmHg 48%
    11:00 +26°C° 0 mm 4 mps 735 mmHg 48%
    12:00 +26°C° 0 mm 4 mps 735 mmHg 48%
    13:00 +26°C° 0 mm 4 mps 735 mmHg 49%
    14:00 +27°C° 0 mm 4 mps 735 mmHg 49%
    15:00 +28°C° 0 mm 4 mps 735 mmHg 49%
    16:00 +28°C° 0 mm 4 mps 735 mmHg 49%
    17:00 +27°C° 0 mm 4 mps 735 mmHg 54%
    18:00 +26°C° 0 mm 4 mps 735 mmHg 59%
    19:00 +25°C° 0 mm 4 mps 735 mmHg 64%
    20:00 +25°C° 0 mm 4 mps 735 mmHg 64%
    21:00 +23°C° 0 mm 4 mps 735 mmHg 65%
    22:00 +22°C° 0 mm 4 mps 735 mmHg 66%
    23:00 +22°C° 0.2 mm 4 mps 736 mmHg 68%

    Tomorrow, 19 August, Monday

    Time Temperature Precipitation Wind Pressure Humidity
    00:00 +21°C° 0.2 mm 3 mps 736 mmHg 70%
    01:00 +21°C° 0.2 mm 3 mps 736 mmHg 73%
    02:00 +20°C° 0.1 mm 3 mps 736 mmHg 74%
    03:00 +20°C° 0.1 mm 2 mps 736 mmHg 76%
    04:00 +20°C° 0.1 mm 2 mps 736 mmHg 77%
    05:00 +20°C° 0.5 mm 2 mps 736 mmHg 77%
    06:00 +21°C° 0.5 mm 2 mps 737 mmHg 78%
    07:00 +21°C° 0.5 mm 2 mps 737 mmHg 78%
    08:00 +23°C° 0.1 mm 2 mps 737 mmHg 75%
    09:00 +24°C° 0.1 mm 2 mps 738 mmHg 71%
    10:00 +25°C° 0.1 mm 2 mps 738 mmHg 67%
    11:00 +26°C° 0.1 mm 2 mps 738 mmHg 63%
    12:00 +27°C° 0.1 mm 2 mps 738 mmHg 59%
    13:00 +28°C° 0.1 mm 2 mps 738 mmHg 55%
    14:00 +27°C° 1 mm 3 mps 739 mmHg 61%
    15:00 +25°C° 1 mm 4 mps 739 mmHg 67%
    16:00 +23°C° 1 mm 4 mps 739 mmHg 73%
    17:00 +22°C° 0 mm 3 mps 739 mmHg 76%
    18:00 +21°C° 0 mm 2 mps 740 mmHg 78%
    19:00 +21°C° 0 mm 1 mps 740 mmHg 81%
    20:00 +20°C° 0 mm 1 mps 740 mmHg 82%
    21:00 +20°C° 0 mm 1 mps 741 mmHg 84%
    22:00 +19°C° 0 mm 1 mps 741 mmHg 85%
    23:00 +19°C° 0 mm 1 mps 741 mmHg 87%

    Day after tomorrow, 20 August, Tuesday

    Time Temperature Precipitation Wind Pressure Humidity
    00:00 +19°C° 0 mm 1 mps 742 mmHg 89%
    01:00 +18°C° 0 mm 1 mps 742 mmHg 91%
    02:00 +18°C° 0 mm 1 mps 742 mmHg 91%
    03:00 +16°C° 0 mm 0 mps 742 mmHg 91%
    04:00 +15°C° 0 mm 0 mps 742 mmHg 91%
    05:00 +18°C° 0 mm 1 mps 742 mmHg 87%
    06:00 +19°C° 0 mm 1 mps 743 mmHg 83%
    07:00 +19°C° 0 mm 2 mps 743 mmHg 78%
    08:00 +21°C° 0 mm 2 mps 743 mmHg 71%
    09:00 +23°C° 0 mm 2 mps 743 mmHg 63%
    10:00 +25°C° 0 mm 2 mps 743 mmHg 55%
    11:00 +25°C° 0 mm 2 mps 743 mmHg 55%
    12:00 +25°C° 0 mm 2 mps 743 mmHg 55%
    13:00 +26°C° 0 mm 2 mps 742 mmHg 54%
    14:00 +26°C° 0 mm 3 mps 742 mmHg 55%
    15:00 +26°C° 0 mm 3 mps 742 mmHg 55%
    16:00 +26°C° 0 mm 4 mps 742 mmHg 55%
    17:00 +25°C° 0 mm 4 mps 741 mmHg 60%
    18:00 +24°C° 0 mm 3 mps 741 mmHg 65%
    19:00 +22°C° 0 mm 3 mps 741 mmHg 71%
    20:00 +21°C° 1.3 mm 3 mps 741 mmHg 77%
    21:00 +20°C° 1.3 mm 3 mps 741 mmHg 83%
    22:00 +20°C° 1.3 mm 3 mps 741 mmHg 89%
    23:00 +20°C° 1.2 mm 3 mps 740 mmHg 91%

    21 August, Wednesday

    Time Temperature Precipitation Wind Pressure Humidity
    00:00 +20°C° 1.2 mm 3 mps 740 mmHg 92%
    01:00 +20°C° 1.2 mm 3 mps 740 mmHg 93%
    02:00 +20°C° 0.3 mm 3 mps 740 mmHg 94%
    03:00 +20°C° 0.3 mm 2 mps 740 mmHg 94%
    04:00 +20°C° 0.3 mm 2 mps 740 mmHg 95%
    05:00 +20°C° 0.5 mm 3 mps 740 mmHg 94%
    06:00 +19°C° 0.5 mm 4 mps 741 mmHg 94%
    07:00 +19°C° 0.5 mm 5 mps 741 mmHg 93%
    08:00 +17°C° 0.1 mm 5 mps 742 mmHg 92%
    09:00 +17°C° 0.1 mm 5 mps 742 mmHg 91%
    10:00 +16°C° 0.1 mm 5 mps 743 mmHg 90%
    11:00 +17°C° 0 mm 6 mps 743 mmHg 87%
    12:00 +17°C° 0 mm 6 mps 743 mmHg 85%
    13:00 +17°C° 0 mm 6 mps 744 mmHg 82%
    14:00 +19°C° 0 mm 6 mps 744 mmHg 79%
    15:00 +19°C° 0 mm 5 mps 744 mmHg 77%
    16:00 +19°C° 0 mm 5 mps 744 mmHg 75%
    17:00 +18°C° 0 mm 4 mps 745 mmHg 76%
    18:00 +18°C° 0 mm 3 mps 745 mmHg 76%
    19:00 +17°C° 0 mm 2 mps 745 mmHg 77%
    20:00 +17°C° 0 mm 2 mps 745 mmHg 80%
    21:00 +16°C° 0 mm 2 mps 745 mmHg 83%
    22:00 +15°C° 0 mm 1 mps 745 mmHg 87%
    23:00 +15°C° 0 mm 2 mps 745 mmHg 87%

    22 August, Thursday

    Time Temperature Precipitation Wind Pressure Humidity
    00:00 +15°C° 0 mm 2 mps 745 mmHg 88%
    01:00 +15°C° 0 mm 2 mps 745 mmHg 89%
    02:00 +15°C° 0 mm 2 mps 745 mmHg 90%
    03:00 +14°C° 0 mm 2 mps 745 mmHg 91%
    04:00 +14°C° 0 mm 2 mps 745 mmHg 92%
    05:00 +14°C° 0 mm 2 mps 745 mmHg 88%
    06:00 +14°C° 0 mm 3 mps 745 mmHg 84%
    07:00 +16°C° 0 mm 3 mps 746 mmHg 80%
    08:00 +17°C° 0 mm 3 mps 746 mmHg 74%
    09:00 +18°C° 0 mm 4 mps 746 mmHg 68%
    10:00 +19°C° 0 mm 4 mps 746 mmHg 62%
    11:00 +20°C° 0 mm 4 mps 746 mmHg 59%
    12:00 +21°C° 0 mm 4 mps 745 mmHg 55%
    13:00 +22°C° 0 mm 4 mps 745 mmHg 51%
    14:00 +22°C° 0 mm 4 mps 745 mmHg 51%
    15:00 +22°C° 0 mm 4 mps 745 mmHg 51%
    16:00 +22°C° 0 mm 4 mps 745 mmHg 51%
    17:00 +21°C° 0 mm 3 mps 745 mmHg 56%
    18:00 +20°C° 0 mm 3 mps 745 mmHg 60%
    19:00 +18°C° 0 mm 2 mps 745 mmHg 65%
    20:00 +18°C° 0 mm 2 mps 745 mmHg 65%
    21:00 +17°C° 0 mm 2 mps 745 mmHg 65%
    22:00 +16°C° 0 mm 2 mps 746 mmHg 66%
    23:00 +16°C° 0 mm 2 mps 746 mmHg 67%

    23 August, Friday

    Time Temperature Precipitation Wind Pressure Humidity
    00:00 +15°C° 0 mm 2 mps 746 mmHg 69%
    01:00 +15°C° 0 mm 2 mps 746 mmHg 70%
    02:00 +14°C° 0 mm 2 mps 746 mmHg 74%
    03:00 +14°C° 0 mm 2 mps 746 mmHg 77%
    04:00 +14°C° 0 mm 2 mps 746 mmHg 80%
    05:00 +15°C° 0 mm 2 mps 746 mmHg 77%
    06:00 +16°C° 0 mm 2 mps 746 mmHg 73%
    07:00 +17°C° 0 mm 2 mps 746 mmHg 70%
    08:00 +18°C° 0 mm 2 mps 747 mmHg 62%
    09:00 +20°C° 0 mm 3 mps 747 mmHg 55%
    10:00 +22°C° 0 mm 4 mps 747 mmHg 47%
    11:00 +22°C° 0 mm 4 mps 747 mmHg 45%
    12:00 +23°C° 0 mm 4 mps 747 mmHg 42%
    13:00 +25°C° 0 mm 4 mps 747 mmHg 39%
    14:00 +23°C° 0 mm 4 mps 746 mmHg 40%
    15:00 +23°C° 0 mm 4 mps 746 mmHg 40%
    16:00 +23°C° 0 mm 4 mps 746 mmHg 40%
    17:00 +22°C° 0 mm 4 mps 746 mmHg 46%
    18:00 +20°C° 0 mm 3 mps 746 mmHg 52%
    19:00 +18°C° 0 mm 3 mps 746 mmHg 58%
    20:00 +18°C° 0 mm 3 mps 746 mmHg 60%
    21:00 +17°C° 0 mm 3 mps 746 mmHg 62%
    22:00 +16°C° 0 mm 3 mps 746 mmHg 65%
    23:00 +16°C° 0 mm 3 mps 746 mmHg 66%
    Show more